Regional Weather Roundup
Issued by NWS Albany, NY

Home | Current Version | Previous Version | Text Only | Print | Product List | Glossary On
Versions: 1 2 3 4 5 6 7 8 9 10 11 12 13 14 15 16 17 18 19 20 21 22 23 24 25 26 27 28 29 30 31 32 33 34 35 36 37 38 39 40 41 42 43 44 45 46 47 48 49 50
000
ASUS41 KALY 281410
RWRALY

NEW YORK STATE HOURLY WEATHER ROUNDUP
NATIONAL WEATHER SERVICE ALBANY NY
1000 AM EDT SAT MAR 28 2015

NOTE: "FAIR" INDICATES FEW OR NO CLOUDS BELOW 12,000 FEET WITH NO
SIGNIFICANT WEATHER AND/OR NO OBSTRUCTIONS TO VISIBILITY.

NYZ032-033-038>043-046>054-057>066-NYZ062>081-281500-
EAST


CITY           SKY/WX    TMP DP  RH WIND       PRES   REMARKS
ALBANY         LGT SNOW  27  20  75 N9        29.91R WCI  18
GLENS FALLS    CLOUDY    25  11  55 N14       29.93R WCI  13
POUGHKEEPSIE   CLOUDY    32  22  66 N16G22    29.85R WCI  21
NEWBURGH       FLURRIES  32  23  69 N12       29.85R WCI  23
MONTGOMERY     CLOUDY    32  18  56 NW10      29.83R WCI  24
WHITE PLAINS   CLOUDY    31  23  72 NW22G30   29.78R HAZE    WCI  18
ISLIP          SNOW      31  29  92 N15       29.76R VSB 1/4 WCI  20
NEW YORK CITY  CLOUDY    35  20  54 N17       29.82R WCI  25
CENTRAL PARK   CLOUDY    34  18  52 NW8       29.84R WCI  27
$$

NYZ005>009-017-018-044>046-055-056-281500-
CENTRAL


CITY           SKY/WX    TMP DP  RH WIND       PRES   REMARKS
FULTON         CLOUDY    17   4  56 N15       30.08R WCI   2
SYRACUSE       CLOUDY    20   9  62 NW14      30.05R WCI   7
ROME           CLOUDY    19   9  65 NW13      30.02R WCI   6
ELMIRA         CLOUDY    21  11  65 N9        30.01R WCI  11
BINGHAMTON     CLOUDY    19  10  68 N17G23    29.90R WCI   4
MONTICELLO     CLOUDY    25  16  68 NW16      29.84R WCI  12
$$

NYZ026>034-041>043-281500-
NORTH


CITY           SKY/WX    TMP DP  RH WIND       PRES   REMARKS
WATERTOWN      CLOUDY    17   3  54 N10       30.09R WCI   5
FORT DRUM      NOT AVBL
MASSENA        CLOUDY    16   4  59 NW8       30.09R WCI   5
SARANAC LAKE   CLOUDY    17  10  74 N7        29.88R HAZE    WCI   8
PLATTSBURGH    CLOUDY    20  11  68 N16       30.02R WCI   6
$$

NYZ001>004-010>016-019>021-281500-
WEST


CITY           SKY/WX    TMP DP  RH WIND       PRES   REMARKS
NIAGARA FALLS  MOSUNNY   18   6  59 N13       30.15R WCI   5
BUFFALO        PTSUNNY   18   5  57 N8        30.13R WCI   8
DUNKIRK        PTSUNNY   15   7  70 NW10      30.16R WCI   2
JAMESTOWN      CLOUDY    14   9  79 N10G18    30.04R WCI   1
WELLSVILLE     FLURRIES  15   7  70 NW16G22   29.96R WCI  -1
ROCHESTER      CLOUDY    18   8  65 N14       30.11R WCI   4
PENN YAN       LGT SNOW  19  10  68 NW15G21   30.04R WCI   5
$$

             KEY
       WCI = WIND CHILL INDEX
       VSB = VISIBILITY
       HX  = HEAT INDEX
$$


USA.gov is the U.S. government's official web portal to all federal, state and local government web resources and services.